Date String (YYYY-MM-DD hh:mm:ss) UTC,Instrument flags,absolute air pressure of the measurement (hPa),sample flow rate (lpm),inlet stack bypass flow (lpm),air temperature of the measurement (°C),ambient temperature measured by the external sensor (°C),aerosol sample conditioner tube jacket temperature (°C),OPC LED temperature (°C),internal box temperature (°C),relative humidity of the measurement (%),span deviation,mass concentration of particles derived from Lorenz-Mie calculation of OPC scattering (μg/m³),mass concentration of particles derived from Lorenz-Mie calculation of OPC scattering (μg/m³),mass concentration of particles derived from Lorenz-Mie calculation of OPC scattering (μg/m³)
DateTimeUTC,F1_M11,P_M11,Q1_M11,Q2_M11,T1_M11,T2_M11,T3_M11,T4_M11,T5_M11,U1_M11,ZSPAN_M11,X2_M11,X0_M11,X1_M11
2023-06-06 21:00:00,SystemResetWarning,0830.9,4.99,000.00,029.3,027.3,000.0,037.8,030.8,30.8,0001.5,0008.11,0012.77,0007.60
2023-06-06 21:01:00,SystemResetWarning,0830.9,5.00,000.00,029.3,027.5,000.0,037.8,030.8,30.7,0001.6,0008.20,0012.93,0007.65
2023-06-06 21:02:00,SystemResetWarning,0830.9,5.00,000.00,029.3,027.7,000.0,037.8,030.9,31.3,0001.4,0008.26,0012.88,0007.68
2023-06-06 21:03:00,SystemResetWarning,0830.9,5.00,000.00,029.4,027.8,000.0,037.8,030.9,30.9,0001.4,0008.27,0012.86,0007.70
2023-06-06 21:04:00,SystemResetWarning,0830.9,5.01,000.00,029.4,028.0,000.0,037.9,030.9,31.2,0001.4,0008.26,0012.86,0007.70
2023-06-06 21:05:00,SystemResetWarning,0830.9,4.99,000.00,029.4,028.1,000.0,037.9,031.0,31.0,0001.4,0008.27,0012.96,0007.70
2023-06-06 21:06:00,SystemResetWarning,0830.8,4.99,000.00,029.5,028.2,000.0,037.9,031.1,30.3,0001.2,0008.21,0012.81,0007.66
2023-06-06 21:07:00,SystemResetWarning,0830.8,5.00,000.00,029.5,028.3,000.0,037.9,031.1,30.0,0001.3,0008.18,0012.65,0007.64
2023-06-06 21:08:00,SystemResetWarning,0830.8,4.99,000.00,029.6,027.6,000.0,037.9,031.1,30.0,0001.4,0008.17,0012.09,0007.63
2023-06-06 21:09:00,SystemResetWarning,0830.8,5.00,000.00,029.5,025.8,000.0,037.9,031.1,30.3,0001.3,0008.17,0012.27,0007.64
2023-06-06 21:10:00,SystemResetWarning,0830.8,5.00,000.00,029.5,025.3,000.0,037.9,031.0,30.0,0001.3,0008.18,0012.47,0007.66
2023-06-06 21:11:00,SystemResetWarning,0830.8,5.01,000.00,029.4,025.5,000.0,037.9,030.7,29.8,0001.7,0008.18,0012.60,0007.63
2023-06-06 21:12:00,SystemResetWarning,0830.7,5.01,000.00,029.3,025.9,000.0,037.9,030.6,29.6,0001.7,0008.14,0012.51,0007.61
2023-06-06 21:13:00,SystemResetWarning,0830.8,5.00,000.00,029.3,026.3,000.0,037.9,030.7,29.8,0001.8,0008.12,0012.41,0007.63
2023-06-06 21:14:00,SystemResetWarning,0830.7,5.00,000.00,029.3,026.6,000.0,037.9,030.7,30.2,0001.5,0008.14,0012.41,0007.65
2023-06-06 21:15:00,SystemResetWarning,0830.7,5.00,000.00,029.4,027.0,000.0,037.9,030.8,31.2,0001.4,0008.17,0012.82,0007.67
2023-06-06 21:16:00,SystemResetWarning,0830.7,5.00,000.00,029.4,027.3,000.0,037.9,030.9,31.1,0001.5,0008.15,0013.03,0007.66
2023-06-06 21:17:00,SystemResetWarning,0830.8,4.99,000.00,029.4,027.5,000.0,037.9,030.9,30.1,0001.9,0008.18,0013.39,0007.68
2023-06-06 21:18:00,SystemResetWarning,0830.7,5.00,000.00,029.4,027.7,000.0,037.9,031.0,29.7,0001.9,0008.17,0013.62,0007.66
2023-06-06 21:19:00,SystemResetWarning,0830.8,5.00,000.00,029.5,027.9,000.0,037.9,031.0,29.6,0002.1,0008.08,0013.88,0007.57
2023-06-06 21:20:00,SystemResetWarning,0830.7,5.00,000.00,029.5,028.1,000.0,037.9,031.1,29.9,0002.3,0007.99,0013.93,0007.48
2023-06-06 21:21:00,SystemResetWarning,0830.7,5.00,000.00,029.5,028.2,000.0,038.0,031.1,29.9,0002.0,0007.88,0014.22,0007.39
2023-06-06 21:22:00,SystemResetWarning,0830.7,5.00,000.00,029.6,028.1,000.0,038.0,031.2,29.4,0001.6,0007.80,0013.93,0007.36
2023-06-06 21:23:00,SystemResetWarning,0830.7,4.98,000.00,029.6,026.3,000.0,037.9,031.1,29.7,0001.8,0007.72,0013.80,0007.30
2023-06-06 21:24:00,SystemResetWarning,0830.6,5.01,000.00,029.5,024.7,000.0,037.9,031.0,30.1,0001.8,0007.69,0013.85,0007.25
2023-06-06 21:25:00,SystemResetWarning,0830.6,5.01,000.00,029.5,024.4,000.0,037.8,030.9,30.3,0001.7,0007.66,0013.87,0007.23
2023-06-06 21:26:00,SystemResetWarning,0830.6,5.00,000.00,029.4,024.6,000.0,037.8,030.6,30.2,0001.5,0007.71,0013.54,0007.29
2023-06-06 21:27:00,SystemResetWarning,0830.5,5.00,000.00,029.3,025.1,000.0,037.8,030.5,30.7,0001.1,0007.78,0013.33,0007.39
2023-06-06 21:28:00,SystemResetWarning,0830.5,5.00,000.00,029.2,025.6,000.0,037.8,030.5,30.7,0000.6,0007.87,0013.22,0007.47
2023-06-06 21:29:00,SystemResetWarning,0830.5,5.00,000.00,029.2,026.1,000.0,037.8,030.6,30.8,0000.5,0007.95,0013.27,0007.55
2023-06-06 21:30:00,SystemResetWarning,0830.6,5.00,000.00,029.2,026.5,000.0,037.8,030.6,30.8,0000.4,0008.07,0012.88,0007.66
2023-06-06 21:31:00,SystemResetWarning,0830.6,5.01,000.00,029.3,026.8,000.0,037.8,030.7,31.2,0000.1,0008.20,0012.87,0007.76
2023-06-06 21:32:00,SystemResetWarning,0830.6,5.00,000.00,029.3,027.1,000.0,037.8,030.8,31.5,0000.1,0008.32,0013.01,0007.85
2023-06-06 21:33:00,SystemResetWarning,0830.6,4.99,000.00,029.3,027.4,000.0,037.8,030.8,31.7,0000.3,0008.36,0013.06,0007.87
2023-06-06 21:34:00,SystemResetWarning,0830.6,4.99,000.00,029.3,027.6,000.0,037.8,030.9,31.4,0000.3,0008.39,0013.04,0007.89
2023-06-06 21:35:00,SystemResetWarning,0830.6,5.01,000.00,029.4,027.8,000.0,037.8,030.9,31.3,0000.1,0008.36,0013.06,0007.88
2023-06-06 21:36:00,SystemResetWarning,0830.6,5.01,000.00,029.4,028.0,000.0,037.9,031.0,31.0,0000.3,0008.42,0013.88,0007.91
2023-06-06 21:37:00,SystemResetWarning,0830.6,5.01,000.00,029.4,028.1,000.0,037.9,031.0,31.0,0000.4,0008.40,0014.74,0007.87
2023-06-06 21:38:00,SystemResetWarning,0830.6,4.99,000.00,029.5,028.2,000.0,037.9,031.1,31.9,0000.7,0008.30,0014.86,0007.77
2023-06-06 21:39:00,SystemResetWarning,0830.5,4.98,000.00,029.5,028.3,000.0,037.9,031.1,32.2,0000.9,0008.18,0014.50,0007.64
2023-06-06 21:40:00,SystemResetWarning,0830.5,5.00,000.00,029.6,027.6,000.0,037.9,031.2,32.3,0001.0,0008.05,0014.25,0007.52
2023-06-06 21:41:00,SystemResetWarning,0830.8,5.00,000.00,029.5,025.9,000.0,037.9,031.1,31.4,0001.0,0007.93,0014.18,0007.41
2023-06-06 21:42:00,SystemResetWarning,0830.7,5.01,000.00,029.5,025.4,000.0,037.9,031.0,31.1,0001.2,0007.83,0013.90,0007.34
2023-06-06 21:43:00,SystemResetWarning,0830.8,5.01,000.00,029.4,025.5,000.0,037.9,030.7,31.4,0001.4,0007.78,0013.11,0007.31
2023-06-06 21:44:00,SystemResetWarning,0830.6,5.00,000.00,029.4,025.9,000.0,037.9,030.7,32.1,0001.5,0007.76,0013.09,0007.31
2023-06-06 21:45:00,SystemResetWarning,0830.5,4.99,000.00,029.3,026.3,000.0,037.9,030.7,32.5,0001.7,0007.79,0013.20,0007.32
2023-06-06 21:46:00,SystemResetWarning,0830.6,5.00,000.00,029.3,026.6,000.0,037.9,030.7,33.1,0002.2,0007.81,0013.24,0007.33
2023-06-06 21:47:00,SystemResetWarning,0830.5,5.01,000.00,029.4,027.0,000.0,037.9,030.8,32.9,0002.4,0007.77,0012.43,0007.31
2023-06-06 21:48:00,SystemResetWarning,0830.4,5.00,000.00,029.4,027.3,000.0,037.9,030.9,32.6,0002.4,0007.80,0011.49,0007.36
2023-06-06 21:49:00,SystemResetWarning,0830.5,4.99,000.00,029.4,027.5,000.0,037.9,030.9,31.7,0002.6,0007.96,0011.50,0007.50
2023-06-06 21:50:00,SystemResetWarning,0830.4,5.01,000.00,029.4,027.7,000.0,037.9,031.0,31.5,0002.8,0008.14,0011.72,0007.67
2023-06-06 21:51:00,SystemResetWarning,0830.5,5.00,000.00,029.5,027.9,000.0,037.9,031.0,32.0,0002.7,0008.29,0011.85,0007.79
2023-06-06 21:52:00,SystemResetWarning,0830.6,5.00,000.00,029.5,028.0,000.0,037.9,031.1,33.0,0002.7,0008.43,0012.25,0007.90
2023-06-06 21:53:00,SystemResetWarning,0830.8,5.00,000.00,029.5,028.2,000.0,038.0,031.1,32.9,0002.8,0008.55,0012.58,0008.00
2023-06-06 21:54:00,SystemResetWarning,0830.4,5.00,000.00,029.6,028.3,000.0,038.0,031.1,33.3,0002.6,0008.62,0012.71,0008.06
2023-06-06 21:55:00,SystemResetWarning,0830.5,4.98,000.00,029.6,027.5,000.0,038.0,031.2,34.0,0002.5,0008.70,0013.04,0008.12
2023-06-06 21:56:00,SystemResetWarning,0830.4,5.01,000.00,029.6,025.4,000.0,037.9,031.0,34.4,0002.1,0008.77,0013.36,0008.20
2023-06-06 21:57:00,SystemResetWarning,0830.4,5.01,000.00,029.5,024.4,000.0,037.9,031.0,34.4,0001.5,0008.89,0013.45,0008.29
2023-06-06 21:58:00,SystemResetWarning,0830.4,5.00,000.00,029.4,024.5,000.0,037.8,030.8,32.9,0001.4,0008.98,0013.50,0008.36
2023-06-06 21:59:00,SystemResetWarning,0830.4,4.99,000.00,029.3,024.9,000.0,037.8,030.6,32.9,0001.3,0009.00,0013.53,0008.38
